www.pogodaiklimat.ru

Погода и климат >> Архив погоды >> Аргентина >> Мендоса


ПОГОДА в Мендосе

  • Прогноз погоды в Мендосе
  • Монитор погоды в Мендосе

АРХИВ ПОГОДЫ в Мендосе

Время (UTC), дата Ветер
(напр.,м/с)
 
Видим.   Явления Облачность Т
(С)
Тd
(С)
f
(%)
Тe
(С)
Тes
(С)
Комфортность P
(гПа)
Po
(гПа)
Тmin
(С)
Tmax
(С)
R
(мм)
R24
(мм)
S
(см)
15 18.06 ЮВ 1 15 км ясно +10.0 -2.8 41 +10 +16 1018.2 935.3
18 18.06 СВ 2 15 км ясно +14.4 -6.0 24 +14 +20 1016.3 933.8
21 18.06 СЗ 2 15 км ясно +14.6 -6.6 22 +15 +15 1018.6 935.8
00 19.06 С 1 15 км ясно +7.4 -5.6 39 +7 +7 1019.6 935.7 0.0 +15.8
03 19.06 Ю 2 15 км ясно +6.2 -2.9 52 +4 +4 1021.5 938.6
06 19.06 Ю 2 15 км ясно +2.4 -4.7 59 0 0 1021.2 938.4
09 19.06 ЮЗ 2 15 км ясно +3.2 -5.9 51 +1 +1 1020.7 938.1
12 19.06 Ю 1 15 км 1/0
[Cs]
+1.4 -8.6 47 0 0 1022.7 938.6 -1.4 +7.4
15 19.06 С 3 15 км 4/0
[Ac As Cs]
+14.0 -9.1 19 +14 +17 1021.7 939.3
18 19.06 В 3 15 км 5/0
[Ac As Cs]
+16.6 -7.8 18 +17 +20 1019.9 937.4
21 19.06 СВ 2 15 км 5/0
[Ac As Cs]
+17.0 -6.8 19 +17 +17 1019.5 937.3
00 20.06 штиль 0 15 км ясно +9.1 -1.7 47 +9 +9 1022.2 938.4 +1.4 +18.2
03 20.06 штиль 0 15 км 3/0
[Ac As]
+6.0 -2.9 53 +6 +6 1020.8 938.5
06 20.06 штиль 0 15 км 3/0
[Ac As]
+4.3 -0.9 69 +4 +4 1018.5 936.5
09 20.06 штиль 0 15 км 3/0
[Ac As Cs]
+3.3 -3.8 60 +3 +3 1016.6 934.6
12 20.06 штиль 0 15 км 4/0
[Ac As Cs]
+1.2 -4.9 64 +1 +1 1017.8 934.2 +0.5 +9.1
15 20.06 ЮВ 1 15 км 6/0
[Cs]
+11.8 -5.1 30 +12 +18 1016.7 934.4
18 20.06 С 3 15 км 8/0
[Cs]
+15.8 -8.9 17 +16 +20 1011.8 931.7
21 20.06 С 1 15 км 8/0
[Cs]
+15.4 -4.8 24 +16 +16 1012.8 930.9
00 21.06 ЮЗ 2 15 км 3/0
[Cs]
+9.3 -1.8 46 +9 +9 1014.5 931.3 +1.2 +16.2
03 21.06 ЮЗ 2 15 км 8/0
[Cs]
+8.2 -2.4 47 +7 +7 1013.3 931.6
06 21.06 ЮЗ 2 15 км 9/0
[Cs]
+8.3 -2.6 46 +7 +7 1012.3 931.2
09 21.06 ЮЗ 2 15 км 3/0
[Cs]
+4.6 -2.4 60 +2 +2 1012.3 930.6
12 21.06 З 1 6000 м дымка 8/0
[Ac As Cs]
+3.0 -1.9 70 +2 +2 1015.5 932.5 +1.8 +9.8
15 21.06 В 2 15 км 5/0
[Ac As Cs]
+13.4 -1.4 36 +13 +17 1015.6 933.8
18 21.06 В 3 15 км 4/0
[Ac As Cs]
+17.2 +2.3 37 +17 +21 1014.2 933.0
21 21.06 В 1 15 км 5/0
[Ac As Cs]
+17.2 +5.6 46 +18 +18 1016.8 935.0
00 22.06 З 2 15 км 3/0
[Cs]
+10.0 +4.9 71 +9 +9 1020.8 937.4 +2.8 +18.8
03 22.06 ЮЗ 1 15 км 3/0
[Cs]
+6.4 +3.7 83 +5 +5 1020.4 938.1
06 22.06 ЮЗ 2 15 км ясно +7.2 +3.6 78 +5 +5 1019.4 937.8
09 22.06 СЗ 1 15 км ясно +4.0 +1.5 84 +3 +3 1018.2 936.2
12 22.06 З 2 15 км 3/0
[Ac cuf]
+4.8 +1.9 81 +2 +2 1019.6 936.6 +3.0 +10.0
15 22.06 СВ 1 10 км дым 5/0
[Ac As Cs]
+15.0 +3.0 44 +16 +20 1019.0 937.0
18 22.06 В 3 15 км 8/0
[Ac As Cs]
+17.8 +1.4 33 +18 +21 1015.3 934.1
21 22.06 штиль 0 15 км 6/0
[Ac As Cs]
+17.6 +3.5 39 +18 +18 1015.2 933.4
00 23.06 ЮЗ 2 15 км ясно +11.0 +4.1 62 +10 +10 1017.5 934.8 +4.8 +18.6
03 23.06 штиль 0 15 км ясно +8.0 +1.1 62 +8 +8 1015.6 934.1
06 23.06 штиль 0 15 км 3/0
[Ac As Cs]
+6.8 -0.2 61 +6 +6 1014.5 933.3
09 23.06 СВ 2 15 км 5/0
[Ac As Cs]
+7.5 +0.1 59 +6 +6 1011.9 931.0
12 23.06 Ю 2 15 км 8/4 1200 м
[Sc Ac As Cs]
+8.4 +2.9 68 +7 +7 1013.8 931.8 +5.8 +11.5
15 23.06 Ю 2 15 км 6/6 1200 м
[Sc Ac As]
+16.4 +3.1 41 +17 +19 1012.7 931.6
18 23.06 Ю 3 15 км 6/5 1500 м
[Sc Ac As]
+17.3 +3.0 38 +17 +19 1011.8 930.6
21 23.06 В 1 15 км 9/4 1500 м
[Sc Ac As Cs]
+16.6 +3.7 42 +18 +18 1011.3 930.2
00 24.06 Ю 2 15 км 4/0
[Ac As Cs]
+13.4 +4.9 56 +13 +13 1013.1 931.6 +7.9 +18.5
03 24.06 Ю 3 15 км 9/0
[Cs]
+13.6 +0.3 40 +13 +13 1011.4 931.2
06 24.06 штиль 0 15 км 9/0
[Cs]
+9.3 +1.5 58 +9 +9 1009.3 928.8
09 24.06 ЮЗ 2 15 км 8/0
[Ac As Cs]
+7.8 +2.7 70 +6 +6 1006.7 926.1
12 24.06 СВ 1 15 км 8/0
[Ac As Cs]
+6.6 +2.4 75 +6 +6 1006.1 924.9 +6.0 +14.4
15 24.06 ЮВ 3 15 км 6/3 1350 м
[Sc Ac As]
+13.6 +6.3 61 +13 +15 1003.4 923.4
18 24.06 ЮВ 4 15 км 6/3 1350 м
[Sc Ac As]
+17.4 +5.4 45 +17 +19 1001.1 921.2
21 24.06 З 6 2000 м пыльный позёмок 6/3 1350 м
[Sc Ac As]
+17.0 -3.9 24 +16 +16 1002.5 922.2
00 25.06 Ю 3 8000 м пыльный позёмок 6/3 1350 м
[Sc Ac As]
+12.4 +2.1 49 +11 +11 1007.5 926.1 +6.6 +18.6
03 25.06 ЮВ 1 15 км 5/3 1350 м
[Sc Ac As]
+8.8 -4.8 38 +9 +9 1015.0 932.9
06 25.06 СЗ 2 15 км 4/0
[Cs]
+6.8 -8.6 32 +5 +5 1017.0 935.4
09 25.06 С 3 15 км ясно +2.8 -6.5 50 -1 -1 1019.4 937.0

 

Местоположение метеостанции Мендоса (Аргентина): широта -32.83 долгота -68.78 высота над уровнем моря 704 м.

В архиве по умолчанию представлена погода в Мендосе за последнюю неделю. Архивные данные за месяц целиком и за предыдущие месяцы, начиная с января 2011 года, Вы можете получить, выбрав интересующий диапазон дат из раскрывающегося списка и нажав кнопку "Ввод!".


*Определитесь, кто Вы:
робот инопланетянин человек

Внимание! Время в таблицах - всемирное. Для получения местного времени необходимо прибавить поправку, которая равна -3 ч.

Смотрите также архив погоды в соседних городах и на ближайших метеорологических станциях:

Погода в Сан-Мартине (Аргентина) (44 км)
Погода на Пасо Лос Либертадорес (Чили) (125 км)
Погода в Сан-Хуане (Аргентина) (163 км)
Погода в Сан-Хосе-де-Майпо (Чили) (170 км)
Погода в Сантьяго Агуас Андинас (Чили) (183 км)
Погода в Ло-Пинто (Чили) (188 км)
Погода в Сантьяго (Чили) (189 км)
Погода в Пудауэле (Чили) (196 км)
Погода в Сан-Рафаэле (Аргентина) (198 км)
Погода в Льяй Льяй (Чили) (199 км)

Пояснения к столбцам:

Ветер - указаны скорость ветра в м/с - средняя за 10 мин, порывы в срок и между сроками (в фигурных скобках) и направление, откуда дует ветер: С - северный, СВ - северо-восточный, В - восточный, ЮВ - юго-восточный, Ю - южный, ЮЗ - юго-западный, З - западный, СЗ - северо-западный.
Видимость - горизонтальная дальность видимости в метрах или километрах. При видимости от 1 до 10 км при отсутствии осадков обычно наблюдается дымка, при ухудшении видимости до 1 км и менее - туман. В сухую погоду видимость может ухудшаться дымом, пылью или мглою.
Явления - указаны атмосферные явления, наблюдавшиеся в срок или в последний час перед сроком; фигурными скобками обозначены явления, наблюдавшиеся между сроками (за 1-3 часа до срока); квадратными скобками обозначены град или гололедные отложения с указанием их диаметра в мм.
Облачность - указаны через наклонную черту общая и нижняя облачность в баллах и высота нижней границы облаков в метрах; квадратными скобками обозначены формы облаков: Ci - перистые, Cs - перисто-слоистые, Cc - перисто-кучевые, Ac - высококучевые, As - высокослоистые, Sc - слоисто-кучевые, Ns - слоисто-дождевые, Cu - кучевые, Cb - кучево-дождевые. Подробнее классификацию облаков см. в Атласе облаков (PDF).
T - Температура воздуха - температура, измеренная на высоте 2 м над землей.
Td - Температура точки росы - температура, при понижении до которой содержащийся в воздухе водяной пар достигнет насыщения.
f - Относительная влажность воздуха - влажноcть воздуха, измеренная на высоте 2 м над землей.
Te - Эффективная температура - температура, которую ощущает одетый по сезону человек в тени. Характеристика душности погоды. При расчете учитывается влияние влажности воздуха и скорости ветра на теплоощущения человека.
Tes - Эффективная температура на солнце - температура, которую ощущает человек, с поправкой на солнечный нагрев. Характеристика знойности погоды. Зависит от высоты солнца над горизонтом, облачности и скорости ветра. Ночью, в пасмурную погоду, а также при ветре 12 м/с и более поправка равна нулю.
P - Атмосферное давление - приведенное к уровню моря атмосферное давление.
Po - Атмосферное давление - измеренное на уровне метеостанции атмосферное давление.
Tmin - Минимальная температура - минимум температуры воздуха на высоте 2 м над землей.
Tmax - Максимальная температура - максимум температуры воздуха на высоте 2 м над землей.
R - Количество осадков - Количество выпавших осадков за период времени, мм. При наведении курсора мыши на число - период времени, за который выпало указанное количество осадков.
R24 - Количество осадков - Количество выпавших осадков за 24 часа, мм.
S - Снежный покров - Высота снежного покрова, см. При наведении курсора мыши на число - состояние снежного покрова и степень покрытия местности в баллах.